Regional Weather Roundup
Issued by NWS Cleveland, OH

Home | Current Version | Previous Version | Text Only | Print | Product List | Glossary Off
Versions: 1 2 3 4 5 6 7 8 9 10 11 12 13 14 15 16 17 18 19 20 21 22 23 24 25 26 27 28 29 30 31 32 33 34 35 36 37 38 39 40 41 42 43 44 45 46 47 48 49 50

000
ASUS41 KCLE 232112
RWRCLE
OHIO REGIONAL WEATHER ROUNDUP
NATIONAL WEATHER SERVICE WILMINGTON, OH
400 PM EST THU NOV 23 2017

NOTE: "FAIR" INDICATES FEW OR NO CLOUDS BELOW 12,000 FEET WITH NO
SIGNIFICANT WEATHER AND/OR OBSTRUCTIONS TO VISIBILITY.

OHZ001>008-015>018-024>027-034-035-043-044-232200-
   NORTHWEST OHIO

CITY           SKY/WX    TMP DP  RH WIND       PRES   REMARKS
DEFIANCE       FAIR      41  23  48 S12       29.98F
FINDLAY        FAIR      41  24  51 SW15      29.99S
TOLEDO EXPRESS FAIR      41  26  55 SW13      29.98F
TOLEDO EXEC    MOCLDY    40  26  57 SW12      29.99F
LIMA           FAIR      39  26  59 S10       29.99F
$$

OHZ009>014-019>023-028>033-038-089-232200-
   NORTHEAST OHIO

CITY           SKY/WX    TMP DP  RH WIND       PRES   REMARKS
CLE-HOPKINS    CLOUDY    40  23  50 S10       30.01F
CLE-LAKEFRONT  CLOUDY    40  22  48 S13       29.99F
CUY CO. ARPT   CLOUDY    39  23  52 S14       29.99F
LORAIN-ELYRIA  CLOUDY    38  20  48 SW12      30.00S
ASHTABULA      CLOUDY    37  23  56 SW8       30.00S
AKRON-CANTON   MOCLDY    39  23  52 SW9       30.00F
WOOSTER        CLOUDY    38  23  55 SW8       30.00F
MANSFIELD      CLOUDY    38  24  57 S12       29.99F
YOUNGSTOWN     CLOUDY    37  22  54 SW7       30.00S
$$

OHZ042-051>053-060>062-070>072-077>081-232200-
  SOUTHWEST OHIO

CITY           SKY/WX    TMP DP  RH WIND       PRES   REMARKS
CINC-COVINGTON FAIR      45  27  49 S6        30.02F
CINC-LUNKEN    PTSUNNY   45  27  49 S7        30.05F
HAMILTON       FAIR      46  24  42 VRB3      30.04F
DAYTON         PTSUNNY   40  26  57 SW10      30.02F
WRIGHT-PAT AFB PTSUNNY   42  23  46 S7        30.02S
DAYTON GENERAL FAIR      42  25  50 S6        30.02S
WILMINGTON     PTSUNNY   40  26  57 S8        30.02F
$$

OHZ036-037-039>041-045>050-054>059-063>069-073>076-082>088-232200-
  CENTRAL AND SOUTHEAST OHIO

CITY           SKY/WX    TMP DP  RH WIND       PRES   REMARKS
COLUMBUS       CLOUDY    40  25  55 S7        30.04S
OSU AIRPORT    CLOUDY    41  27  57 S9        30.03R
BOLTON FIELD   MOSUNNY   41  27  56 S8        30.04S
RICKENBACK AFB CLOUDY    39  25  58 S5        30.04S
NEWARK         CLOUDY    41  23  48 S7        30.03S
MARION         CLOUDY    39  26  59 S12       30.01F
LANCASTER      PTSUNNY   40  24  53 SW8       30.04F
ZANESVILLE     MOCLDY    40  20  44 SW6       30.04F
NEW PHILLY     CLOUDY    40  21  46 S5        30.03F
$$




USA.gov is the U.S. government's official web portal to all federal, state and local government web resources and services.